H1 CPF 2 NER 2021 4 17 9 107 01 glonass134 H2 1407501 9134 40315 2021 4 17 0 0 0 2021 4 20 23 45 0 900 1 1 0 0 0 1 H9 10 0 59321 0.00000 0 4852646.261 18832290.162 16560267.168 10 0 59321 900.00000 0 3482250.792 17158114.600 18594739.943 10 0 59321 1800.00000 0 1835343.180 15423628.066 20269404.648 10 0 59321 2700.00000 0 -67184.562 13689835.493 21551709.598 10 0 59321 3600.00000 0 -2192771.964 12014224.383 22416646.758 10 0 59321 4500.00000 0 -4498282.415 10448443.639 22847243.963 10 0 59321 5400.00000 0 -6931543.989 9036240.558 22834906.814 10 0 59321 6300.00000 0 -9433277.833 7811741.681 22379602.846 10 0 59321 7200.00000 0 -11939336.607 6798149.377 21489883.174 10 0 59321 8100.00000 0 -14383162.274 6006909.108 20182739.583 10 0 59321 9000.00000 0 -16698362.837 5437383.068 18483297.932 10 0 59321 9900.00000 0 -18821301.659 5077045.026 16424351.849 10 0 59321 10800.00000 0 -20693591.807 4902189.280 14045743.817 10 0 59321 11700.00000 0 -22264390.818 4879124.898 11393603.993 10 0 59321 12600.00000 0 -23492398.792 4965805.581 8519460.353 10 0 59321 13500.00000 0 -24347474.699 5113826.430 5479236.797 10 0 59321 14400.00000 0 -24811801.375 5270702.716 2332158.658 10 0 59321 15300.00000 0 -24880548.640 5382333.051 -860412.385 10 0 59321 16200.00000 0 -24562005.385 5395540.860 -4036190.034 10 0 59321 17100.00000 0 -23877174.329 5260584.183 -7133196.515 10 0 59321 18000.00000 0 -22858846.375 4933524.974 -10090990.953 10 0 59321 18900.00000 0 -21550194.179 4378354.916 -12851867.015 10 0 59321 19800.00000 0 -20002945.340 3568785.363 -15361994.545 10 0 59321 20700.00000 0 -18275213.785 2489623.708 -17572481.185 10 0 59321 21600.00000 0 -16429082.459 1137676.530 -19440332.217 10 0 59321 22500.00000 0 -14528040.708 -477859.527 -20929289.289 10 0 59321 23400.00000 0 -12634385.586 -2335535.920 -22010531.649 10 0 59321 24300.00000 0 -10806697.038 -4402313.527 -22663226.784 10 0 59321 25200.00000 0 -9097493.145 -6634718.925 -22874920.780 10 0 59321 26100.00000 0 -7551163.185 -8980446.540 -22641762.093 10 0 59321 27000.00000 0 -6202263.850 -11380339.012 -21968555.999 10 0 59321 27900.00000 0 -5074247.971 -13770662.621 -20868650.237 10 0 59321 28800.00000 0 -4178676.606 -16085582.559 -19363655.636 10 0 59321 29700.00000 0 -3514944.674 -18259735.046 -17483008.555 10 0 59321 30600.00000 0 -3070528.763 -20230789.705 -15263384.720 10 0 59321 31500.00000 0 -2821743.979 -21941896.349 -12747976.763 10 0 59321 32400.00000 0 -2734975.626 -23343915.609 -9985649.979 10 0 59321 33300.00000 0 -2768331.970 -24397342.053 -7029992.921 10 0 59321 34200.00000 0 -2873647.215 -25073841.318 -3938281.239 10 0 59321 35100.00000 0 -2998749.558 -25357338.932 -770374.530 10 0 59321 36000.00000 0 -3089898.561 -25244617.054 2412433.036 10 0 59321 36900.00000 0 -3094289.408 -24745395.549 5548586.720 10 0 59321 37800.00000 0 -2962519.069 -23881895.054 8577448.097 10 0 59321 38700.00000 0 -2650911.180 -22687900.780 11440453.214 10 0 59321 39600.00000 0 -2123602.434 -21207366.174 14082230.689 10 0 59321 40500.00000 0 -1354303.088 -19492614.236 16451659.448 10 0 59321 41400.00000 0 -327657.584 -17602210.530 18502846.894 10 0 59321 42300.00000 0 959852.396 -15598595.345 20196009.607 10 0 59321 43200.00000 0 2499501.503 -13545572.123 21498240.516 10 0 59321 44100.00000 0 4270429.782 -11505755.149 22384148.278 10 0 59321 45000.00000 0 6240265.028 -9538081.389 22836356.646 10 0 59321 45900.00000 0 8366235.258 -7695488.817 22845853.959 10 0 59321 46800.00000 0 10596727.910 -6022857.061 22412185.184 10 0 59321 47700.00000 0 12873233.693 -4555295.885 21543481.638 10 0 59321 48600.00000 0 15132596.757 -3316852.917 20256326.174 10 0 59321 49500.00000 0 17309479.576 -2319695.104 18575454.575 10 0 59321 50400.00000 0 19338941.159 -1563798.962 16533296.952 10 0 59321 51300.00000 0 21159021.641 -1037163.544 14169366.133 10 0 59321 52200.00000 0 22713225.130 -716538.036 11529503.163 10 0 59321 53100.00000 0 23952795.968 -568634.102 8664993.423 10 0 59321 54000.00000 0 24838691.555 -551772.026 5631569.805 10 0 59321 54900.00000 0 25343167.154 -617890.859 2488322.266 10 0 59321 55800.00000 0 25450904.132 -714836.590 -703464.307 10 0 59321 56700.00000 0 25159632.478 -788829.949 -3881520.129 10 0 59321 57600.00000 0 24480220.089 -787007.172 -6983823.187 10 0 59321 58500.00000 0 23436224.337 -659923.668 -9949828.466 10 0 59321 59400.00000 0 22062924.786 -363911.920 -12721667.718 10 0 59321 60300.00000 0 20405878.398 136808.756 -15245294.436 10 0 59321 61200.00000 0 18519059.220 868362.039 -17471549.992 10 0 59321 62100.00000 0 16462662.341 1845860.590 -19357128.991 10 0 59321 63000.00000 0 14300665.966 3072526.548 -20865424.419 10 0 59321 63900.00000 0 12098255.539 4539324.149 -21967235.992 10 0 59321 64800.00000 0 9919218.954 6225120.010 -22641328.485 10 0 59321 65700.00000 0 7823422.477 8097363.958 -22874830.126 10 0 59321 66600.00000 0 5864472.903 10113261.171 -22663464.637 10 0 59321 67500.00000 0 4087662.693 12221385.758 -22011613.968 10 0 59321 68400.00000 0 2528282.364 14363667.616 -20932212.131 10 0 59321 69300.00000 0 1210368.378 16477668.955 -19446473.746 10 0 59321 70200.00000 0 145936.159 18499055.289 -17583464.003 10 0 59321 71100.00000 0 -665272.704 20364157.937 -15379519.490 10 0 59321 72000.00000 0 -1235521.443 22012521.681 -12877532.064 10 0 59321 72900.00000 0 -1588301.405 23389332.218 -10126110.199 10 0 59321 73800.00000 0 -1757082.689 24447623.428 -7178634.303 10 0 59321 74700.00000 0 -1783646.504 25150173.682 -4092224.365 10 0 59321 75600.00000 0 -1716070.690 25471013.622 -926639.606 10 0 59321 76500.00000 0 -1606453.913 25396483.885 2256869.113 10 0 59321 77400.00000 0 -1508474.466 24925799.838 5396732.577 10 0 59321 78300.00000 0 -1474886.216 24071100.700 8432240.461 10 0 59321 79200.00000 0 -1555056.559 22856981.477 11304700.882 10 0 59321 80100.00000 0 -1792649.356 21319527.298 13958560.930 10 0 59321 81000.00000 0 -2223549.723 19504889.921 16342467.815 10 0 59321 81900.00000 0 -2874117.658 17467464.763 18410251.353 10 0 59321 82800.00000 0 -3759843.970 15267743.088 20121809.829 10 0 59321 83700.00000 0 -4884465.624 12969927.055 21443883.074 10 0 59321 84600.00000 0 -6239578.967 10639405.081 22350698.394 10 0 59321 85500.00000 0 -7804768.900 8340190.782 22824477.039 10 0 59322 0.00000 0 -9548251.073 6132430.410 22855791.216 10 0 59322 900.00000 0 -11428003.366 4070081.260 22443763.934 10 0 59322 1800.00000 0 -13393341.443 2198856.521 21596106.797 10 0 59322 2700.00000 0 -15386876.625 554522.782 20328993.187 10 0 59322 3600.00000 0 -17346775.709 -838380.057 18666767.666 10 0 59322 4500.00000 0 -19209230.603 -1967341.274 16641495.086 10 0 59322 5400.00000 0 -20911035.450 -2832170.502 14292356.312 10 0 59322 6300.00000 0 -22392163.657 -3444764.377 11664900.496 10 0 59322 7200.00000 0 -23598236.176 -3828357.764 8810167.253 10 0 59322 8100.00000 0 -24482776.239 -4016290.723 5783695.014 10 0 59322 9000.00000 0 -25009154.018 -4050343.347 2644434.758 10 0 59322 9900.00000 0 -25152137.316 -3978709.462 -546409.093 10 0 59322 10800.00000 0 -24898980.995 -3853696.253 -3726586.895 10 0 59322 11700.00000 0 -24250007.448 -3729249.045 -6834035.939 10 0 59322 12600.00000 0 -23218652.366 -3658408.366 -9808110.457 10 0 59322 13500.00000 0 -21830973.217 -3690809.566 -12590783.457 10 0 59322 14400.00000 0 -20124641.132 -3870333.394 -15127794.989 10 0 59322 15300.00000 0 -18147459.290 -4233009.319 -17369722.713 10 0 59322 16200.00000 0 -15955471.209 -4805262.114 -19272952.694 10 0 59322 17100.00000 0 -13610739.767 -5602577.218 -20800530.888 10 0 59322 18000.00000 0 -11178891.560 -6628641.843 -21922878.559 10 0 59322 18900.00000 0 -8726530.651 -7874998.239 -22618358.250 10 0 59322 19800.00000 0 -6318630.611 -9321223.366 -22873680.241 10 0 59322 20700.00000 0 -4016014.066 -10935626.690 -22684142.868 10 0 59322 21600.00000 0 -1873024.364 -12676435.952 -22053703.626 10 0 59322 22500.00000 0 64514.779 -14493420.285 -20994881.256 10 0 59322 23400.00000 0 1760968.441 -16329881.913 -19528492.291 10 0 59322 24300.00000 0 3192121.366 -18124932.556 -17683228.604 10 0 59322 25200.00000 0 4345922.068 -19815959.189 -15495085.305 10 0 59322 26100.00000 0 5222712.110 -21341176.232 -13006650.994 10 0 59322 27000.00000 0 5834934.004 -22642158.097 -10266274.751 10 0 59322 27900.00000 0 6206332.759 -23666247.149 -7327126.222 10 0 59322 28800.00000 0 6370686.868 -24368737.560 -4246167.110 10 0 59322 29700.00000 0 6370123.823 -24714745.041 -1083053.669 10 0 59322 30600.00000 0 6253092.134 -24680685.596 2101009.089 10 0 59322 31500.00000 0 6072075.686 -24255302.567 5244439.927 10 0 59322 32400.00000 0 5881146.661 -23440199.951 8286458.968 10 0 59322 33300.00000 0 5733459.616 -22249860.139 11168248.615 10 0 59322 34200.00000 0 5678791.502 -20711145.382 13834076.494 10 0 59322 35100.00000 0 5761230.414 -18862303.251 16232359.974 10 0 59322 36000.00000 0 6017109.662 -16751516.559 18316652.938 10 0 59322 36900.00000 0 6473273.685 -14435056.699 20046536.775 10 0 59322 37800.00000 0 7145748.824 -11975115.457 21388399.317 10 0 59322 38700.00000 0 8038875.502 -9437403.434 22316087.321 10 0 59322 39600.00000 0 9144939.567 -6888612.896 22811420.016 10 0 59322 40500.00000 0 10444320.200 -4393848.551 22864553.635 10 0 59322 41400.00000 0 11906150.670 -2014131.326 22474189.153 10 0 59322 42300.00000 0 13489466.923 195922.209 21647618.041 10 0 59322 43200.00000 0 15144798.737 2190149.000 20400603.607 10 0 59322 44100.00000 0 16816139.395 3932532.151 18757098.335 10 0 59322 45000.00000 0 18443213.439 5398466.101 16748800.763 10 0 59322 45900.00000 0 19963948.959 6575540.945 14414558.510 10 0 59322 46800.00000 0 21317051.350 7463812.272 11799627.339 10 0 59322 47700.00000 0 22444570.275 8075544.413 8954799.366 10 0 59322 48600.00000 0 23294350.932 8434437.355 5935416.597 10 0 59322 49500.00000 0 23822264.909 8574369.787 2800288.844 10 0 59322 50400.00000 0 23994124.537 8537711.652 -389462.322 10 0 59322 51300.00000 0 23787197.871 8373278.553 -3571609.926 10 0 59322 52200.00000 0 23191258.278 8134016.127 -6684053.154 10 0 59322 53100.00000 0 22209122.577 7874514.459 -9666048.055 10 0 59322 54000.00000 0 20856653.827 7648460.205 -12459411.375 10 0 59322 54900.00000 0 19162228.014 7506136.799 -15009672.052 10 0 59322 55800.00000 0 17165687.168 7492080.889 -17267146.179 10 0 59322 56700.00000 0 14916823.562 7642996.174 -19187913.250 10 0 59322 57600.00000 0 12473459.624 7986014.311 -20734673.982 10 0 59322 58500.00000 0 9899205.369 8537377.195 -21877472.826 10 0 59322 59400.00000 0 7260988.387 9301596.432 -22594271.585 10 0 59322 60300.00000 0 4626460.495 10271125.137 -22871363.899 10 0 59322 61200.00000 0 2061389.833 11426555.053 -22703623.831 10 0 59322 62100.00000 0 -372853.062 12737329.652 -22094585.258 10 0 59322 63000.00000 0 -2621611.366 14162942.144 -21056352.156 10 0 59322 63900.00000 0 -4638965.237 15654566.963 -19609343.102 10 0 59322 64800.00000 0 -6389380.215 17157055.469 -17781876.372 10 0 59322 65700.00000 0 -7848914.692 18611211.655 -15609604.881 10 0 59322 66600.00000 0 -9005938.999 19956252.315 -13134812.849 10 0 59322 67500.00000 0 -9861339.171 21132348.843 -10405588.433 10 0 59322 68400.00000 0 -10428199.814 22083144.806 -7474888.630 10 0 59322 69300.00000 0 -10730981.908 22758144.682 -4399514.639 10 0 59322 70200.00000 0 -10804232.217 23114874.820 -1239017.254 10 0 59322 71100.00000 0 -10690880.016 23120727.231 1945447.080 10 0 59322 72000.00000 0 -10440193.632 22754410.057 5092288.020 10 0 59322 72900.00000 0 -10105483.048 22006944.830 8140659.172 10 0 59322 73800.00000 0 -9741645.030 20882169.260 11031620.355 10 0 59322 74700.00000 0 -9402653.435 19396724.584 13709262.877 10 0 59322 75600.00000 0 -9139099.478 17579527.487 16121777.384 10 0 59322 76500.00000 0 -8995884.544 15470747.611 18222444.851 10 0 59322 77400.00000 0 -9010161.855 13120331.756 19970532.651 10 0 59322 78300.00000 0 -9209613.123 10586134.313 21332079.302 10 0 59322 79200.00000 0 -9611132.720 7931729.437 22280553.413 10 0 59322 80100.00000 0 -10219975.334 5223993.636 22797374.261 10 0 59322 81000.00000 0 -11029404.184 2530556.947 22872283.773 10 0 59322 81900.00000 0 -12020856.485 -82773.507 22503562.047 10 0 59322 82800.00000 0 -13164621.474 -2554512.074 21698081.084 10 0 59322 83700.00000 0 -14421005.127 -4829812.518 20471194.155 10 0 59322 84600.00000 0 -15741935.202 -6862509.516 18846461.114 10 0 59322 85500.00000 0 -17072941.458 -8616798.572 16855213.001 10 0 59323 0.00000 0 -18355429.610 -10068483.886 14535962.492 10 0 59323 900.00000 0 -19529154.421 -11205741.142 11933669.541 10 0 59323 1800.00000 0 -20534788.333 -12029362.888 9098876.069 10 0 59323 2700.00000 0 -21316476.214 -12552474.453 6086724.528 10 0 59323 3600.00000 0 -21824268.090 -12799733.247 2955880.163 10 0 59323 4500.00000 0 -22016324.529 -12806044.188 -232621.882 10 0 59323 5400.00000 0 -21860799.749 -12614846.640 -3416580.973 10 0 59323 6300.00000 0 -21337320.454 -12276046.330 -6533861.886 10 0 59323 7200.00000 0 -20437995.836 -11843681.527 -9523626.151 10 0 59323 8100.00000 0 -19167914.417 -11373424.432 -12327537.791 10 0 59323 9000.00000 0 -17545105.560 -10920025.912 -14890917.992 10 0 59323 9900.00000 0 -15599966.799 -10534814.058 -17163824.358 10 0 59323 10800.00000 0 -13374181.175 -10263354.434 -19102032.509 10 0 59323 11700.00000 0 -10919170.598 -10143372.556 -20667900.148 10 0 59323 12600.00000 0 -8294151.131 -10203027.322 -21831096.578 10 0 59323 13500.00000 0 -5563872.584 -10459608.594 -22569183.914 10 0 59323 14400.00000 0 -2796137.827 -10918713.560 -22868039.592 10 0 59323 15300.00000 0 -59205.996 -11573935.698 -22722113.225 10 0 59323 16200.00000 0 2580812.081 -12407078.212 -22134514.363 10 0 59323 17100.00000 0 5062458.309 -13388881.533 -21116931.037 10 0 59323 18000.00000 0 7331228.414 -14480232.840 -19689382.285 10 0 59323 18900.00000 0 9341575.755 -15633805.506 -17879810.870 10 0 59323 19800.00000 0 11058536.754 -16796058.632 -15723525.311 10 0 59323 20700.00000 0 12458912.858 -17909512.085 -13262502.991 10 0 59323 21600.00000 0 13531962.700 -18915201.361 -10544568.471 10 0 59323 22500.00000 0 14279578.496 -19755209.494 -7622463.235 10 0 59323 23400.00000 0 14715941.987 -20375170.279 -4552824.985 10 0 59323 24300.00000 0 14866676.741 -20726638.647 -1395095.960 10 0 59323 25200.00000 0 14767534.191 -20769229.709 1789619.074 10 0 59323 26100.00000 0 14462669.808 -20472437.698 4939723.714 10 0 59323 27000.00000 0 14002582.446 -19817059.405 7994307.970 10 0 59323 27900.00000 0 13441803.500 -18796162.916 10894311.772 10 0 59323 28800.00000 0 12836432.565 -17415561.252 13583652.554 10 0 59323 29700.00000 0 12241622.368 -15693770.630 16010296.350 10 0 59323 30600.00000 0 11709117.710 -13661454.120 18127253.008 10 0 59323 31500.00000 0 11284950.843 -11360372.425 19893477.272 10 0 59323 32400.00000 0 11007389.306 -8841883.499 21274659.358 10 0 59323 33300.00000 0 10905221.992 -6165051.073 22243890.365 10 0 59323 34200.00000 0 10996455.489 -3394438.286 22782189.867 10 0 59323 35100.00000 0 11287476.078 -597675.500 22878885.397 10 0 59323 36000.00000 0 11772713.808 2157099.056 22531835.759 10 0 59323 36900.00000 0 12434824.507 4803821.441 21747492.768 10 0 59323 37800.00000 0 13245384.159 7281001.190 20540798.699 10 0 59323 38700.00000 0 14166068.784 9534034.573 18934919.583 10 0 59323 39600.00000 0 15150272.329 11517235.808 16960817.574 10 0 59323 40500.00000 0 16145096.376 13195501.366 14656668.709 10 0 59323 41400.00000 0 17093629.138 14545537.182 12067135.618 10 0 59323 42300.00000 0 17937418.234 15556596.448 9242507.979 10 0 59323 43200.00000 0 18619032.680 16230696.191 6237726.615 10 0 59323 44100.00000 0 19084604.926 16582302.765 3111309.964 10 0 59323 45000.00000 0 19286243.807 16637499.186 -75795.601 10 0 59323 45900.00000 0 19184214.252 16432669.627 -3261418.203 10 0 59323 46800.00000 0 18748789.204 16012757.445 -6383390.621 10 0 59323 47700.00000 0 17961693.063 15429171.747 -9380782.198 10 0 59323 48600.00000 0 16817073.588 14737432.923 -12195106.451 10 0 59323 49500.00000 0 15321959.531 13994658.923 -14771478.844 10 0 59323 50400.00000 0 13496183.701 13257000.847 -17059700.352 10 0 59323 51300.00000 0 11371774.261 12577138.397 -19015244.393 10 0 59323 52200.00000 0 8991839.927 12001942.689 -20600127.182 10 0 59323 53100.00000 0 6408996.491 11570406.287 -21783644.258 10 0 59323 54000.00000 0 3683401.388 11311928.235 -22542959.312 10 0 59323 54900.00000 0 880479.277 11245026.159 -22863534.702 10 0 59323 55800.00000 0 -1931565.598 11376528.835 -22739396.548 10 0 59323 56700.00000 0 -4684346.311 11701281.827 -22173230.778 10 0 59323 57600.00000 0 -7311891.452 12202376.901 -21176309.894 10 0 59323 58500.00000 0 -9753137.170 12851893.743 -19768253.449 10 0 59323 59400.00000 0 -11954210.777 13612121.031 -17976628.376 10 0 59323 60300.00000 0 -13870412.835 14437204.063 -15836398.101 10 0 59323 61200.00000 0 -15467817.461 15275148.525 -13389232.113 10 0 59323 62100.00000 0 -16724426.903 16070095.484 -10682690.008 10 0 59323 63000.00000 0 -17630834.992 16764771.785 -7769296.123 10 0 59323 63900.00000 0 -18190374.417 17303013.024 -4705522.783 10 0 59323 64800.00000 0 -18418744.156 17632253.621 -1550701.604 10 0 59323 65700.00000 0 -18343134.677 17705880.131 1634116.585 10 0 59323 66600.00000 0 -18000889.066 17485349.799 4787331.756 10 0 59323 67500.00000 0 -17437757.140 16941986.195 7847972.919 10 0 59323 68400.00000 0 -16705816.133 16058377.134 10756862.867 10 0 59323 69300.00000 0 -15861144.959 14829316.507 13457748.011 10 0 59323 70200.00000 0 -14961349.015 13262250.278 15898372.704 10 0 59323 71100.00000 0 -14063038.410 11377207.120 18031478.579 10 0 59323 72000.00000 0 -13219364.301 9206215.217 19815710.618 10 0 59323 72900.00000 0 -12477715.661 6792227.611 21216413.443 10 0 59323 73800.00000 0 -11877672.186 4187598.398 22206303.123 10 0 59323 74700.00000 0 -11449298.797 1452170.633 22766001.734 10 0 59323 75600.00000 0 -11211853.283 -1348947.400 22884424.234 10 0 59323 76500.00000 0 -11172961.884 -4147827.827 22559009.543 10 0 59323 77400.00000 0 -11328298.563 -6876291.424 21795790.232 10 0 59323 78300.00000 0 -11661782.970 -9468493.637 20609298.002 10 0 59323 79200.00000 0 -12146290.653 -11863422.192 19022304.950 10 0 59323 80100.00000 0 -12744847.540 -14007202.862 17065403.686 10 0 59323 81000.00000 0 -13412260.190 -15855117.325 14776432.487 10 0 59323 81900.00000 0 -14097114.428 -17373248.344 12199754.859 10 0 59323 82800.00000 0 -14744058.849 -18539682.461 9385406.172 10 0 59323 83700.00000 0 -15296276.770 -19345218.745 6388123.101 10 0 59323 84600.00000 0 -15698041.439 -19793552.845 3266274.450 10 0 59323 85500.00000 0 -15897244.977 -19900927.785 80714.728 10 0 59324 0.00000 0 -15847792.089 -19695266.056 -3106416.167 10 0 59324 900.00000 0 -15511754.423 -19214819.843 -6232922.578 10 0 59324 1800.00000 0 -14861193.159 -18506397.491 -9237785.148 10 0 59324 2700.00000 0 -13879568.250 -17623242.460 -12062370.447 10 0 59324 3600.00000 0 -12562674.966 -16622656.496 -14651591.750 10 0 59324 4500.00000 0 -10919065.209 -15563469.517 -16954996.767 10 0 59324 5400.00000 0 -8969935.587 -14503465.181 -18927759.837 10 0 59324 6300.00000 0 -6748486.423 -13496872.639 -20531558.425 10 0 59324 7200.00000 0 -4298778.914 -12592031.591 -21735316.585 10 0 59324 8100.00000 0 -1674138.869 -11829329.704 -22515801.319 10 0 59324 9000.00000 0 1064825.464 -11239499.200 -22858061.063 10 0 59324 9900.00000 0 3852507.917 -10842343.533 -22755699.022 10 0 59324 10800.00000 0 6620795.523 -10645946.305 -22210977.548 10 0 59324 11700.00000 0 9301662.382 -10646393.825 -21234753.157 10 0 59324 12600.00000 0 11829758.587 -10828020.847 -19846245.026 10 0 59324 13500.00000 0 14144887.471 -11164166.998 -18072642.950 10 0 59324 14400.00000 0 16194269.585 -11618410.062 -15948563.557 10 0 59324 15300.00000 0 17934501.031 -12146222.566 -13515366.358 10 0 59324 16200.00000 0 19333126.946 -12696980.761 -10820343.516 10 0 59324 17100.00000 0 20369767.068 -13216240.692 -7915799.390 10 0 59324 18000.00000 0 21036748.896 -13648185.356 -4858037.787 10 0 59324 18900.00000 0 21339224.451 -13938140.170 -1706276.310 10 0 59324 19800.00000 0 21294767.833 -14035051.385 1478491.687 10 0 59324 20700.00000 0 20932472.043 -13893823.986 4634666.104 10 0 59324 21600.00000 0 20291584.017 -13477421.481 7701218.412 10 0 59324 22500.00000 0 19419735.578 -12758640.012 10618857.516 10 0 59324 23400.00000 0 18370844.393 -11721482.638 13331161.739 10 0 59324 24300.00000 0 17202772.348 -10362076.063 15785656.325 10 0 59324 25200.00000 0 15974838.516 -8689090.756 17934816.851 10 0 59324 26100.00000 0 14745289.730 -6723645.684 19736980.258 10 0 59324 27000.00000 0 13568833.429 -4498699.845 21157146.867 10 0 59324 27900.00000 0 12494334.921 -2057953.596 22167658.587 10 0 59324 28800.00000 0 11562774.626 545697.072 22748740.442 10 0 59324 29700.00000 0 10805550.325 3252091.903 22888894.877 10 0 59324 30600.00000 0 10243195.555 5996046.015 22585140.598 10 0 59324 31500.00000 0 9884568.382 8709807.266 21843090.243 10 0 59324 32400.00000 0 9726545.591 11325631.489 20676863.925 10 0 59324 33300.00000 0 9754236.476 13778370.137 19108838.488 10 0 59324 34200.00000 0 9941708.820 16007963.533 17169235.419 10 0 59324 35100.00000 0 10253198.072 17961736.101 14895553.404 10 0 59324 36000.00000 0 10644750.029 19596397.392 12331854.788 10 0 59324 36900.00000 0 11066228.621 20879664.294 9527918.406 10 0 59324 37800.00000 0 11463604.175 21791435.270 6538274.381 10 0 59324 38700.00000 0 11781424.946 22324466.092 3421139.354 10 0 59324 39600.00000 0 11965366.123 22484517.491 237273.345 10 0 59324 40500.00000 0 11964746.560 22289967.812 -2951218.500 10 0 59324 41400.00000 0 11734904.346 21770906.785 -6082114.447 10 0 59324 42300.00000 0 11239328.083 20967749.113 -9094309.018 10 0 59324 43200.00000 0 10451451.138 19929427.434 -11929024.149 10 0 59324 44100.00000 0 9356030.635 18711242.522 -14530972.984 10 0 59324 45000.00000 0 7950051.104 17372463.402 -16849451.808 10 0 59324 45900.00000 0 6243113.301 15973780.629 -18839337.479 10 0 59324 46800.00000 0 4257291.098 14574721.973 -20461970.101 10 0 59324 47700.00000 0 2026462.305 13231140.884 -21685903.451 10 0 59324 48600.00000 0 -404858.207 11992884.334 -22487508.865 10 0 59324 49500.00000 0 -2983133.661 10901738.258 -22851421.701 10 0 59324 50400.00000 0 -5647800.534 9989736.419 -22770822.872 10 0 59324 51300.00000 0 -8333559.832 9277902.407 -22247551.512 10 0 59324 52200.00000 0 -10972868.668 8775475.681 -21292048.189 10 0 59324 53100.00000 0 -13498528.283 8479651.894 -19923131.397 10 0 59324 54000.00000 0 -15846261.374 8375845.886 -18167613.119 10 0 59324 54900.00000 0 -17957172.467 8438463.814 -16059762.183 10 0 59324 55800.00000 0 -19779990.368 8632149.762 -13640626.824 10 0 59324 56700.00000 0 -21273001.223 8913452.555 -10957230.245 10 0 59324 57600.00000 0 -22405593.799 9232841.309 -8061655.117 10 0 59324 58500.00000 0 -23159354.769 9536984.111 -5010034.880 10 0 59324 59400.00000 0 -23528670.552 9771193.625 -1861471.166 10 0 59324 60300.00000 0 -23520812.567 9881936.804 1323102.210 10 0 59324 61200.00000 0 -23155504.005 9819303.583 4482087.285 10 0 59324 62100.00000 0 -22463987.445 9539331.305 7554400.310 10 0 59324 63000.00000 0 -21487632.999 9006087.748 10480638.761 10 0 59324 63900.00000 0 -20276145.317 8193425.720 13204215.446 10 0 59324 64800.00000 0 -18885444.082 7086335.644 15672439.120 10 0 59324 65700.00000 0 -17375305.763 5681839.038 17837521.934 10 0 59324 66600.00000 0 -15806864.069 3989384.559 19657495.334 10 0 59324 67500.00000 0 -14240072.213 2030728.490 21097017.735 10 0 59324 68400.00000 0 -12731231.665 -160697.495 22128059.046 10 0 59324 69300.00000 0 -11330689.443 -2540907.448 22730449.111 10 0 59324 70200.00000 0 -10080799.290 -5056927.350 22892279.397 10 0 59324 71100.00000 0 -9014231.414 -7648744.265 22610149.564 10 0 59324 72000.00000 0 -8152701.580 -10251560.122 21889253.096 10 0 59324 72900.00000 0 -7506173.164 -12798258.933 20743298.887 10 0 59324 73800.00000 0 -7072566.536 -15221986.810 19194268.485 10 0 59324 74700.00000 0 -6837989.146 -17458738.522 17272011.778 10 0 59324 75600.00000 0 -6777477.897 -19449843.408 15013686.980 10 0 59324 76500.00000 0 -6856223.748 -21144246.678 12463053.990 10 0 59324 77400.00000 0 -7031227.737 -22500489.853 9669633.447 10 0 59324 78300.00000 0 -7253318.894 -23488306.184 6687746.937 10 0 59324 79200.00000 0 -7469448.419 -24089762.614 3575456.650 10 0 59324 80100.00000 0 -7625162.096 -24299898.787 393425.586 10 0 59324 81000.00000 0 -7667144.634 -24126835.047 -2796278.570 10 0 59324 81900.00000 0 -7545725.970 -23591344.124 -5931411.085 10 0 59324 82800.00000 0 -7217240.885 -22725904.439 -8950783.454 10 0 59324 83700.00000 0 -6646139.380 -21573275.489 -11795476.225 10 0 59324 84600.00000 0 -5806755.998 -20184656.510 -14410005.742 10 0 59324 85500.00000 0 -4684661.145 -18617507.684 -16743420.143 99